[[{"header":{"parameterUnit":"m.s-1","parameterCategory":1,"la1":30.2991,"la2":30.254,"lo1":-89.0895,"lo2":-89.0444,"dy":0.0017,"dx":0.0017,"nx":28,"ny":28,"refTime":"2024-04-14T03:00:00:Z","depth":0,"parameterNumber":2,"parameterNumberName":"U-component_of_WINDS"},"data":[0,0,0,0,0,0,0,0,0,0,0,0,0,0,0,0,0,0,0,0,0,0,0,0,0,0,0,0,0,0,0,0,0,0,0,0,0,0,0,0,0,0,0,0,0,0,0,0,0,0,0,0,0,0,0,0,0,0,-1.3003,-1.3003,0,-1.3011,-1.3011,-1.3011,-1.2977,-1.2976,-1.2975,-1.2974,-1.2984,-1.2986,-1.2987,0,0,0,0,0,0,0,0,0,0,0,0,0,-1.2959,-1.296,-1.3003,-1.3003,-1.3003,-1.3011,-1.3011,-1.3011,-1.2977,-1.2976,-1.2975,-1.2974,-1.2984,-1.2985,-1.2987,0,0,0,0,0,0,0,0,0,0,0,0,0,-1.2974,-1.296,-1.3002,-1.2987,-1.2985,-1.3011,-1.3011,-1.3011,-1.2978,-1.2976,-1.2975,-1.2973,-1.2983,-1.2985,-1.2987,-1.3029,0,0,-1.2993,-1.2993,0,0,0,0,0,0,0,0,-1.2973,-1.2975,-1.2989,-1.2988,-1.2986,-1.2991,-1.2999,-1.3017,-1.2978,-1.2981,-1.2974,-1.2972,-1.2988,-1.2989,-1.2994,-1.3029,-1.3029,-1.2993,-1.2994,-1.2995,-1.2995,0,0,0,0,0,0,0,-1.2972,-1.2975,-1.3006,-1.2989,-1.2988,-1.298,-1.298,-1.3003,-1.2993,-1.298,-1.2978,-1.2979,-1.2987,-1.2993,-1.2994,-1.303,-1.2993,-1.2994,-1.2995,-1.2996,-1.3099,-1.3101,0,0,0,0,0,0,-1.2973,-1.2974,-1.3006,-1.3006,-1.2976,-1.2982,-1.2982,-1.2991,-1.2992,-1.2991,-1.298,-1.2978,-1.299,-1.2992,-1.2995,-1.3043,-1.2995,-1.2996,-1.2997,-1.3098,-1.31,-1.3101,0,0,0,0,0,0,-1.2972,-1.2976,-1.3005,-1.299,-1.2993,-1.2984,-1.2995,-1.2992,-1.2998,-1.2993,-1.2991,-1.2988,-1.2989,-1.2992,-1.302,-1.3043,-1.2997,-1.2999,-1.3096,-1.3098,-1.3101,-1.3141,0,0,0,0,0,0,-1.2971,-1.2976,-1.2991,-1.299,-1.2994,-1.303,-1.2996,-1.2994,-1.3001,-1.2997,-1.2999,-1.2998,-1.2988,-1.3018,-1.3022,-1.3045,-1.3,-1.3094,-1.3097,-1.31,-1.3138,-1.3145,-1.3151,0,0,0,0,0,-1.2969,-1.3002,-1.2992,-1.2996,-1.3012,-1.3032,-1.3034,-1.3022,-1.3003,-1.3018,-1.3015,-1.2998,-1.304,-1.3021,-1.3026,-1.3049,-1.3092,-1.3096,-1.31,-1.3135,-1.3144,-1.3151,0,0,0,0,0,0,-1.3007,-1.3002,-1.299,-1.3024,-1.3028,-1.3026,-1.3045,-1.3031,-1.3041,-1.3038,-1.3022,-1.3023,-1.3054,-1.3055,-1.3033,-1.309,-1.3063,-1.3068,-1.3088,-1.3096,-1.3103,-1.3102,-1.3002,0,0,0,0,0,-1.3019,-1.3034,-1.303,-1.306,-1.3063,-1.3054,-1.3062,-1.3052,-1.3056,-1.3058,-1.3057,-1.3062,-1.3077,-1.3087,-1.31,-1.3138,-1.3138,-1.3157,-1.3163,-1.3168,-1.3173,-1.3193,-1.3202,-1.3114,-1.3114,-1.3114,0,0,-1.3044,-1.3043,-1.3054,-1.3067,-1.307,-1.3087,-1.3056,-1.3075,-1.3088,-1.3061,-1.3088,-1.3087,-1.3092,-1.3126,-1.3141,-1.3127,-1.3197,-1.3173,-1.3177,-1.3179,-1.3198,-1.3206,-1.3214,-1.3116,-1.3116,-1.3115,0,0,-1.3099,-1.31,-1.3125,-1.3128,-1.3132,-1.3126,-1.3132,-1.3132,-1.313,-1.3156,-1.3137,-1.3152,-1.3178,-1.3182,-1.3188,-1.3245,-1.3229,-1.3249,-1.3283,-1.3304,-1.3311,-1.3317,-1.3337,-1.3345,-1.3254,-1.3254,-1.3254,0,-1.313,-1.3154,-1.314,-1.316,-1.3167,-1.3143,-1.3169,-1.3173,-1.3182,-1.3187,-1.3172,-1.3203,-1.3205,-1.3239,-1.3253,-1.3258,-1.3265,-1.3249,-1.3311,-1.3317,-1.3322,-1.3342,-1.3349,-1.3256,-1.3256,-1.3256,-1.3256,0,-1.3192,-1.3209,-1.3229,-1.3237,-1.3246,-1.3269,-1.3259,-1.327,-1.326,-1.3256,-1.3283,-1.3285,-1.3298,-1.3305,-1.3295,-1.3339,-1.333,-1.3313,-1.3286,-1.3333,-1.3351,-1.3358,-1.326,-1.3259,-1.3258,-1.3258,0,0,-1.327,-1.327,-1.3278,-1.3281,-1.3284,-1.3297,-1.332,-1.3332,-1.3342,-1.3349,-1.3367,-1.339,-1.3374,-1.338,-1.3371,-1.3389,-1.3434,-1.337,-1.3369,-1.3382,-1.3482,-1.3495,-1.3504,-1.3424,-1.3426,-1.3427,-1.3482,0,-1.3324,-1.3361,-1.3349,-1.3388,-1.3404,-1.3382,-1.3402,-1.3406,-1.3403,-1.3417,-1.3413,-1.3429,-1.3407,-1.3411,-1.3428,-1.3425,-1.3454,-1.3421,-1.3442,-1.3443,-1.3441,-1.3513,-1.3527,-1.3579,-1.3489,-1.349,-1.3491,0,-1.3391,-1.34,-1.344,-1.344,-1.3446,-1.3464,-1.3475,-1.3488,-1.3493,-1.3489,-1.3497,-1.3484,-1.3507,-1.348,-1.3511,-1.3489,-1.3497,-1.3497,-1.3499,-1.35,-1.347,-1.3517,-1.3595,-1.3603,-1.3502,-1.3501,-1.35,0,-1.3444,-1.3466,-1.3493,-1.3497,-1.3498,-1.3511,-1.3512,-1.3515,-1.3523,-1.3533,-1.3538,-1.3551,-1.3557,-1.3568,-1.3559,-1.354,-1.3592,-1.3564,-1.359,-1.359,-1.3602,-1.3601,-1.3683,-1.3607,-1.3607,-1.3607,-1.3607,0,-1.3506,-1.3531,-1.3517,-1.3533,-1.3561,-1.3548,-1.3576,-1.3575,-1.3578,-1.3594,-1.3577,-1.3592,-1.358,-1.3595,-1.3588,-1.3615,-1.3619,-1.3617,-1.3615,-1.3619,-1.3619,-1.3624,-1.362,-1.3609,-1.3609,-1.3608,-1.3608,0,-1.357,-1.3561,-1.3589,-1.3587,-1.3588,-1.3608,-1.3608,-1.3623,-1.3619,-1.364,-1.3644,-1.3637,-1.3654,-1.3646,-1.3664,-1.366,-1.3695,-1.3688,-1.3693,-1.3692,-1.3718,-1.3716,-1.3806,-1.3817,-1.3734,-1.3735,-1.3736,0,-1.3609,-1.3628,-1.3629,-1.3638,-1.364,-1.3656,-1.3664,-1.3652,-1.3661,-1.3668,-1.3683,-1.3698,-1.371,-1.3738,-1.3735,-1.3749,-1.3742,-1.3773,-1.3744,-1.3747,-1.3743,-1.3742,-1.3744,-1.3778,-1.3779,-1.378,-1.3781,0,-1.3681,-1.3676,-1.3688,-1.3699,-1.3709,-1.3717,-1.3724,-1.3733,-1.3721,-1.3733,-1.3749,-1.3758,-1.3776,-1.3792,-1.3804,-1.3806,-1.3792,-1.379,-1.3797,-1.3801,-1.3803,-1.3802,-1.3709,-1.3788,-1.3787,-1.3786,-1.3786,-1.3786,-1.3734,-1.375,-1.3753,-1.3767,-1.3771,-1.3777,-1.3792,-1.3789,-1.3803,-1.3816,-1.3808,-1.3828,-1.3833,-1.3847,-1.3851,-1.3867,-1.3855,-1.3865,-1.3867,-1.387,-1.3874,-1.38,-1.3869,-1.3869,-1.3869,-1.3868,-1.3868,0,-1.3805,-1.3805,-1.3819,-1.3828,-1.384,-1.3825,-1.3832,-1.3843,-1.386,-1.3865,-1.3877,-1.3896,-1.3911,-1.391,-1.3924,-1.3937,-1.3931,-1.3941,-1.394,-1.3941,-1.3883,-1.3876,-1.3946,-1.3946,-1.3946,-1.3945,-1.3945,-1.3945,-1.3843,-1.3869,-1.3864,-1.3892,-1.3893,-1.3911,-1.3917,-1.3923,-1.3927,-1.395,-1.3962,-1.396,-1.3963,-1.3977,-1.3991,-1.399,-1.3996,-1.4009,-1.4006,-1.3952,-1.3945,-1.3937,-1.393,-1.401,-1.401,-1.4062,-1.4062,-1.4063]},{"header":{"parameterUnit":"m.s-1","parameterCategory":1,"la1":30.2991,"la2":30.254,"lo1":-89.0895,"lo2":-89.0444,"dy":0.0017,"dx":0.0017,"nx":28,"ny":28,"refTime":"2024-04-14T03:00:00:Z","depth":0,"parameterNumber":3,"parameterNumberName":"V-component_of_WINDS"},"data":[0,0,0,0,0,0,0,0,0,0,0,0,0,0,0,0,0,0,0,0,0,0,0,0,0,0,0,0,0,0,0,0,0,0,0,0,0,0,0,0,0,0,0,0,0,0,0,0,0,0,0,0,0,0,0,0,0,0,4.1152,4.1151,0,4.1103,4.1103,4.1102,4.11,4.11,4.1101,4.1101,4.1046,4.1044,4.1042,0,0,0,0,0,0,0,0,0,0,0,0,0,4.1239,4.1238,4.1152,4.1151,4.1151,4.1103,4.1103,4.1102,4.1099,4.11,4.1101,4.1102,4.1046,4.1044,4.1041,0,0,0,0,0,0,0,0,0,0,0,0,0,4.1197,4.1237,4.1152,4.1144,4.1143,4.1103,4.1103,4.1102,4.1099,4.11,4.1101,4.1102,4.1047,4.1044,4.1041,4.1005,0,0,4.1032,4.1031,0,0,0,0,0,0,0,0,4.1199,4.1194,4.1146,4.1144,4.1143,4.1109,4.1113,4.1069,4.1099,4.1116,4.1101,4.1102,4.1065,4.1061,4.105,4.1002,4.1,4.1032,4.103,4.1028,4.1028,0,0,0,0,0,0,0,4.1202,4.1196,4.1132,4.1145,4.1143,4.1142,4.1137,4.1105,4.1086,4.1114,4.1114,4.1109,4.1065,4.1053,4.1048,4.0999,4.1032,4.1029,4.1027,4.1026,4.0922,4.0921,0,0,0,0,0,0,4.1207,4.1198,4.1134,4.1131,4.1174,4.1139,4.1134,4.1119,4.1086,4.1082,4.1108,4.1109,4.1057,4.1052,4.1046,4.1003,4.1028,4.1026,4.1024,4.0923,4.0922,4.0921,0,0,0,0,0,0,4.1209,4.1202,4.1136,4.1165,4.1156,4.1137,4.112,4.1117,4.1105,4.1082,4.1078,4.1099,4.1058,4.1051,4.1016,4.1001,4.1024,4.1021,4.0924,4.0923,4.0921,4.0916,0,0,0,0,0,0,4.1212,4.1202,4.1189,4.1164,4.1155,4.1107,4.1119,4.1116,4.11,4.1101,4.1072,4.1068,4.1058,4.1021,4.1013,4.0997,4.1019,4.0925,4.0923,4.0922,4.0917,4.0914,4.0912,0,0,0,0,0,4.1215,4.1187,4.1188,4.118,4.1138,4.1106,4.1101,4.1091,4.1099,4.1085,4.1071,4.1069,4.1005,4.1017,4.1009,4.0992,4.0926,4.0924,4.0922,4.0918,4.0915,4.0912,0,0,0,0,0,0,4.1207,4.1184,4.1184,4.1148,4.113,4.1106,4.1088,4.1087,4.1064,4.1065,4.1053,4.1046,4.1013,4.0999,4.1013,4.0956,4.0966,4.0962,4.0966,4.0963,4.096,4.0964,4.1017,0,0,0,0,0,4.1202,4.118,4.116,4.113,4.1121,4.1107,4.1092,4.1087,4.1067,4.1058,4.1041,4.1019,4.0995,4.0978,4.0954,4.0916,4.091,4.09,4.0898,4.0896,4.0892,4.0873,4.0869,4.0914,4.0914,4.0914,0,0,4.1189,4.1174,4.116,4.1129,4.1113,4.1091,4.11,4.1074,4.1057,4.1053,4.1021,4.1008,4.0983,4.0948,4.0931,4.0935,4.0879,4.0893,4.0892,4.0889,4.087,4.0866,4.0862,4.0913,4.0913,4.0913,0,0,4.1155,4.1141,4.1116,4.1102,4.1081,4.1072,4.1066,4.1043,4.1035,4.1003,4.1001,4.098,4.0936,4.092,4.0906,4.087,4.0868,4.0862,4.0848,4.083,4.0826,4.0823,4.0811,4.0806,4.0859,4.0859,4.0859,0,4.1142,4.1108,4.1102,4.1078,4.1065,4.1064,4.1038,4.1024,4.0995,4.0985,4.0991,4.094,4.0923,4.0884,4.0876,4.0864,4.0857,4.0865,4.0827,4.0824,4.0821,4.0809,4.0805,4.0859,4.0859,4.0859,4.0859,0,4.1094,4.1071,4.1053,4.1028,4.1012,4.0987,4.0977,4.0962,4.0959,4.0949,4.0917,4.0898,4.0871,4.0862,4.0857,4.0823,4.0827,4.083,4.0839,4.0816,4.0805,4.08,4.0858,4.0858,4.0858,4.0858,0,0,4.1049,4.1025,4.1019,4.1009,4.0987,4.0968,4.0944,4.092,4.0908,4.0889,4.0868,4.0834,4.0838,4.0822,4.0816,4.08,4.0775,4.0806,4.0805,4.0801,4.0737,4.0735,4.073,4.0774,4.0773,4.0773,4.074,0,4.1013,4.0972,4.0967,4.093,4.0909,4.0911,4.089,4.0874,4.0865,4.0845,4.0835,4.0812,4.0818,4.0809,4.0794,4.0781,4.0762,4.0783,4.0754,4.0753,4.0759,4.0724,4.072,4.0689,4.0735,4.0734,4.0734,0,4.0964,4.0947,4.0908,4.0893,4.0884,4.0865,4.0844,4.0826,4.0809,4.0804,4.0788,4.0785,4.076,4.0772,4.0738,4.0753,4.0741,4.0733,4.0732,4.0728,4.0741,4.0718,4.0679,4.0675,4.0727,4.0727,4.0728,0,4.0937,4.0904,4.0877,4.0869,4.0849,4.0836,4.0827,4.0811,4.0798,4.078,4.0771,4.0749,4.0737,4.072,4.0712,4.0721,4.0678,4.0689,4.0673,4.0673,4.0662,4.0662,4.062,4.0655,4.0655,4.0655,4.0655,0,4.0896,4.0872,4.0865,4.0849,4.0823,4.0818,4.0792,4.0784,4.077,4.0752,4.0751,4.0733,4.0724,4.0704,4.0698,4.0671,4.0665,4.066,4.0658,4.0659,4.066,4.065,4.0652,4.0654,4.0654,4.0655,4.0655,0,4.0859,4.0854,4.0825,4.0811,4.0807,4.0789,4.0776,4.076,4.0753,4.073,4.0724,4.0712,4.069,4.0681,4.0653,4.0649,4.0618,4.0618,4.0624,4.0623,4.0608,4.0609,4.0557,4.055,4.059,4.059,4.059,0,4.0833,4.0816,4.0801,4.079,4.0782,4.0763,4.0751,4.0747,4.0734,4.0716,4.0702,4.0681,4.0663,4.0628,4.0616,4.0595,4.0595,4.0578,4.0591,4.0594,4.0595,4.0596,4.0594,4.0575,4.0574,4.0574,4.0574,0,4.0788,4.0787,4.0771,4.0754,4.0741,4.0727,4.0713,4.0704,4.0698,4.0684,4.0663,4.065,4.0624,4.0602,4.0582,4.0572,4.0571,4.0571,4.0566,4.0566,4.0571,4.0569,4.0617,4.0571,4.0571,4.0571,4.0572,4.0572,4.0755,4.0741,4.073,4.0712,4.0703,4.0691,4.0676,4.0669,4.0652,4.0632,4.0631,4.0609,4.0594,4.0567,4.0556,4.0538,4.0542,4.0535,4.0533,4.0531,4.0531,4.0575,4.0534,4.0534,4.0535,4.0535,4.0535,0,4.071,4.0704,4.0688,4.0671,4.0658,4.0663,4.0649,4.0637,4.0618,4.0606,4.059,4.0567,4.0548,4.0537,4.0517,4.0505,4.0505,4.05,4.05,4.0498,4.0528,4.0534,4.0501,4.0501,4.0501,4.0501,4.0501,4.0501,4.0685,4.0661,4.066,4.0632,4.0625,4.0606,4.0598,4.0587,4.0577,4.0553,4.0538,4.0532,4.052,4.05,4.0483,4.048,4.0473,4.0468,4.0465,4.0492,4.0496,4.0499,4.0505,4.0466,4.0466,4.0437,4.0437,4.0437]}]]